TimePDT,TemperatureF,Dew PointF,Humidity,Sea Level PressureIn,VisibilityMPH,Wind Direction,Wind SpeedMPH,Gust SpeedMPH,PrecipitationIn,Events,Conditions,WindDirDegrees,DateUTC
12:53 AM,61.0,55.0,81,29.96,10.0,South,4.6,-,N/A,,Partly Cloudy,190,2013-07-22 07:53:00
1:53 AM,59.0,55.0,87,29.97,10.0,South,5.8,-,N/A,,Overcast,180,2013-07-22 08:53:00
2:26 AM,59.0,55.4,88,29.98,10.0,South,5.8,-,N/A,,Overcast,190,2013-07-22 09:26:00
2:53 AM,59.0,55.0,87,29.99,10.0,SSW,5.8,-,N/A,,Overcast,210,2013-07-22 09:53:00
3:53 AM,59.0,54.0,83,29.99,10.0,SSW,6.9,-,N/A,,Overcast,210,2013-07-22 10:53:00
4:24 AM,57.2,53.6,88,30.00,10.0,SSW,4.6,-,N/A,,Overcast,210,2013-07-22 11:24:00
4:53 AM,57.9,54.0,87,30.01,10.0,South,5.8,-,N/A,,Overcast,190,2013-07-22 11:53:00
5:53 AM,57.9,54.0,87,30.01,10.0,WSW,4.6,-,N/A,,Overcast,240,2013-07-22 12:53:00
6:53 AM,57.9,54.0,87,30.02,6.0,South,3.5,-,N/A,,Overcast,180,2013-07-22 13:53:00
7:53 AM,59.0,53.1,81,30.04,10.0,WSW,3.5,-,N/A,,Overcast,240,2013-07-22 14:53:00
8:53 AM,60.1,54.0,80,30.05,10.0,Calm,Calm,-,N/A,,Overcast,0,2013-07-22 15:53:00
9:53 AM,61.0,54.0,78,30.06,10.0,WSW,3.5,-,N/A,,Overcast,250,2013-07-22 16:53:00
10:35 AM,64.4,53.6,68,30.06,10.0,SSW,4.6,-,N/A,,Overcast,200,2013-07-22 17:35:00
10:53 AM,64.9,54.0,68,30.06,10.0,Variable,4.6,-,N/A,,Overcast,0,2013-07-22 17:53:00
11:53 AM,66.9,54.0,63,30.07,10.0,Calm,Calm,-,N/A,,Mostly Cloudy,0,2013-07-22 18:53:00
12:14 PM,68.0,53.6,60,30.07,10.0,Calm,Calm,-,N/A,,Scattered Clouds,0,2013-07-22 19:14:00
12:53 PM,71.1,55.0,57,30.06,10.0,Variable,3.5,-,N/A,,Partly Cloudy,0,2013-07-22 19:53:00
1:53 PM,73.0,55.0,53,30.05,10.0,WNW,3.5,-,N/A,,Partly Cloudy,300,2013-07-22 20:53:00
2:53 PM,75.0,55.9,51,30.04,10.0,Variable,5.8,-,N/A,,Clear,0,2013-07-22 21:53:00
3:53 PM,75.9,55.9,50,30.03,10.0,Variable,3.5,-,N/A,,Clear,0,2013-07-22 22:53:00
4:53 PM,79.0,55.0,44,30.02,10.0,NNW,4.6,-,N/A,,Clear,330,2013-07-22 23:53:00
5:53 PM,79.0,54.0,42,30.00,10.0,NW,5.8,-,N/A,,Clear,320,2013-07-23 00:53:00
6:53 PM,79.0,53.1,40,30.00,10.0,Variable,4.6,-,N/A,,Clear,0,2013-07-23 01:53:00
7:53 PM,78.1,55.0,45,29.99,10.0,Variable,3.5,-,N/A,,Clear,0,2013-07-23 02:53:00
8:53 PM,73.0,55.9,55,30.00,10.0,Calm,Calm,-,N/A,,Clear,0,2013-07-23 03:53:00
9:53 PM,72.0,55.9,57,30.01,10.0,NNW,3.5,-,N/A,,Clear,340,2013-07-23 04:53:00
10:53 PM,69.1,55.9,63,30.02,10.0,NW,4.6,-,N/A,,Clear,310,2013-07-23 05:53:00
11:53 PM,66.9,55.0,66,30.03,10.0,NW,3.5,-,N/A,,Clear,320,2013-07-23 06:53:00